| time (UTC) | temp F | wind direction | speed MPH | gust MPH | rain 1hr in | rain 24hr in | rain mn in | humidity % | barometer mb |
| 20260509173044 | 66 | 150 | 1.0 | 4.0 | 0.00 | 0.00 | 0.00 | 59 | 1008.4 |
| 20260509172509 | 66 | 128 | 1.0 | 6.0 | 0.00 | 0.00 | 0.00 | 55 | 1008.5 |
| 20260509172041 | 66 | 122 | 3.0 | 6.0 | 0.00 | 0.00 | 0.00 | 55 | 1008.6 |
| 20260509171514 | 67 | 209 | 1.0 | 5.0 | 0.00 | 0.00 | 0.00 | 56 | 1008.5 |
| 20260509171042 | 67 | 178 | 2.0 | 5.0 | 0.00 | 0.00 | 0.00 | 58 | 1008.5 |
| 20260509170513 | 67 | 194 | 2.0 | 5.0 | 0.00 | 0.00 | 0.00 | 55 | 1008.6 |
| 20260509170027 | 67 | 152 | 1.0 | 6.0 | 0.00 | 0.00 | 0.00 | 59 | 1008.7 |
| 20260509165558 | 67 | 310 | 2.0 | 8.0 | 0.00 | 0.00 | 0.00 | 54 | 1008.7 |
| 20260509165501 | 67 | 313 | 3.0 | 8.0 | 0.00 | 0.00 | 0.00 | 54 | 1008.7 |
| 20260509165033 | 67 | 306 | 4.0 | 8.0 | 0.00 | 0.00 | 0.00 | 55 | 1008.7 |
| 20260509164505 | 67 | 242 | 5.0 | 7.0 | 0.00 | 0.00 | 0.00 | 52 | 1008.8 |
| 20260509164036 | 67 | 148 | 1.0 | 9.0 | 0.00 | 0.00 | 0.00 | 60 | 1008.8 |
| 20260509163553 | 66 | 208 | 4.0 | 9.0 | 0.00 | 0.00 | 0.00 | 56 | 1008.7 |
| 20260509163024 | 66 | 150 | 3.0 | 7.0 | 0.00 | 0.00 | 0.00 | 54 | 1008.7 |
| 20260509162559 | 65 | 187 | 2.0 | 11.0 | 0.00 | 0.00 | 0.00 | 60 | 1008.6 |
| 20260509162501 | 65 | 322 | 2.0 | 11.0 | 0.00 | 0.00 | 0.00 | 60 | 1008.6 |
| 20260509162039 | 65 | 210 | 6.0 | 11.0 | 0.00 | 0.00 | 0.00 | 57 | 1008.6 |
| 20260509161507 | 65 | 92 | 3.0 | 10.0 | 0.00 | 0.00 | 0.00 | 58 | 1008.6 |
| 20260509161041 | 65 | 152 | 3.0 | 8.0 | 0.00 | 0.00 | 0.00 | 56 | 1008.5 |
| 20260509160552 | 65 | 171 | 3.0 | 6.0 | 0.00 | 0.00 | 0.00 | 60 | 1008.5 |
| 20260509160023 | 65 | 15 | 2.0 | 7.0 | 0.00 | 0.00 | 0.00 | 56 | 1008.6 |
| 20260509155552 | 64 | 181 | 3.0 | 7.0 | 0.00 | 0.00 | 0.00 | 59 | 1008.6 |
| 20260509155020 | 65 | 192 | 2.0 | 8.0 | 0.00 | 0.00 | 0.00 | 57 | 1008.7 |
| 20260509154602 | 64 | 197 | 3.0 | 8.0 | 0.00 | 0.00 | 0.00 | 55 | 1008.7 |
| 20260509154008 | 64 | 188 | 1.0 | 6.0 | 0.00 | 0.00 | 0.00 | 60 | 1008.7 |
| 20260509153540 | 64 | 227 | 3.0 | 6.0 | 0.00 | 0.00 | 0.00 | 61 | 1008.9 |
| 20260509153011 | 63 | 184 | 1.0 | 5.0 | 0.00 | 0.00 | 0.00 | 60 | 1009.0 |
| 20260509152540 | 63 | 207 | 1.0 | 5.0 | 0.00 | 0.00 | 0.00 | 57 | 1009.0 |
| 20260509152011 | 63 | 199 | 2.0 | 7.0 | 0.00 | 0.00 | 0.00 | 58 | 1009.0 |
| 20260509151527 | 63 | 229 | 3.0 | 7.0 | 0.00 | 0.00 | 0.00 | 59 | 1009.1 |
| 20260509151058 | 62 | 321 | 2.0 | 5.0 | 0.00 | 0.00 | 0.00 | 60 | 1008.9 |
| 20260509150536 | 62 | 340 | 0.0 | 5.0 | 0.00 | 0.00 | 0.00 | 59 | 1009.1 |
| 20260509150016 | 62 | 288 | 2.0 | 6.0 | 0.00 | 0.00 | 0.00 | 58 | 1009.1 |
| 20260509145527 | 62 | 267 | 1.0 | 4.0 | 0.00 | 0.00 | 0.00 | 62 | 1009.1 |
| 20260509145101 | 61 | 265 | 1.0 | 5.0 | 0.00 | 0.00 | 0.00 | 63 | 1009.1 |
| 20260509145003 | 61 | 229 | 0.0 | 4.0 | 0.00 | 0.00 | 0.00 | 63 | 1009.1 |
| 20260509144551 | 61 | 348 | 1.0 | 4.0 | 0.00 | 0.00 | 0.00 | 61 | 1009.1 |
| 20260509144008 | 61 | 165 | 0.0 | 6.0 | 0.00 | 0.00 | 0.00 | 62 | 1009.2 |
| 20260509143537 | 60 | 357 | 3.0 | 6.0 | 0.00 | 0.00 | 0.00 | 64 | 1009.3 |
| 20260509143018 | 60 | 360 | 1.0 | 6.0 | 0.00 | 0.00 | 0.00 | 62 | 1009.4 |
| 20260509142546 | 60 | 299 | 1.0 | 6.0 | 0.00 | 0.00 | 0.00 | 63 | 1009.4 |
| 20260509142017 | 60 | 275 | 2.0 | 6.0 | 0.00 | 0.00 | 0.00 | 63 | 1009.4 |
| 20260509141550 | 60 | 38 | 0.0 | 5.0 | 0.00 | 0.00 | 0.00 | 64 | 1009.5 |
| 20260509141028 | 59 | 283 | 2.0 | 6.0 | 0.00 | 0.00 | 0.00 | 63 | 1009.4 |
| 20260509140554 | 59 | 318 | 0.0 | 3.0 | 0.00 | 0.00 | 0.00 | 63 | 1009.5 |
| 20260509140024 | 59 | 271 | 0.0 | 6.0 | 0.00 | 0.00 | 0.00 | 62 | 1009.4 |
| 20260509135554 | 59 | 244 | 2.0 | 6.0 | 0.00 | 0.00 | 0.00 | 64 | 1009.4 |
| 20260509135031 | 59 | 327 | 0.0 | 3.0 | 0.00 | 0.00 | 0.00 | 67 | 1009.4 |
| 20260509134600 | 58 | 246 | 0.0 | 5.0 | 0.00 | 0.00 | 0.00 | 66 | 1009.3 |
| 20260509134502 | 58 | 271 | 0.0 | 5.0 | 0.00 | 0.00 | 0.00 | 65 | 1009.3 |
| 20260509134032 | 58 | 288 | 2.0 | 5.0 | 0.00 | 0.00 | 0.00 | 65 | 1009.3 |
| 20260509133504 | 58 | 269 | 1.0 | 4.0 | 0.00 | 0.00 | 0.00 | 66 | 1009.3 |
| 20260509133037 | 58 | 261 | 0.0 | 3.0 | 0.00 | 0.00 | 0.00 | 65 | 1009.3 |
| 20260509132506 | 58 | 181 | 0.0 | 3.0 | 0.00 | 0.00 | 0.00 | 66 | 1009.3 |
| 20260509132040 | 57 | 196 | 0.0 | 5.0 | 0.00 | 0.00 | 0.00 | 68 | 1009.3 |
| 20260509131527 | 57 | 302 | 2.0 | 7.0 | 0.00 | 0.00 | 0.00 | 66 | 1009.4 |
| 20260509131049 | 57 | 244 | 3.0 | 7.0 | 0.00 | 0.00 | 0.00 | 65 | 1009.4 |
| 20260509130518 | 57 | 259 | 1.0 | 4.0 | 0.00 | 0.00 | 0.00 | 65 | 1009.4 |
| 20260509130101 | 57 | 274 | 1.0 | 4.0 | 0.00 | 0.00 | 0.00 | 66 | 1009.5 |
| 20260509125523 | 57 | 237 | 0.0 | 3.0 | 0.00 | 0.00 | 0.00 | 69 | 1009.4 |
| 20260509125042 | 57 | 291 | 0.0 | 3.0 | 0.00 | 0.00 | 0.00 | 71 | 1009.5 |
| 20260509124520 | 56 | 269 | 0.0 | 2.0 | 0.00 | 0.00 | 0.00 | 70 | 1009.3 |
| 20260509124046 | 56 | 320 | 0.0 | 3.0 | 0.00 | 0.00 | 0.00 | 68 | 1009.4 |
| 20260509123516 | 56 | 321 | 1.0 | 2.0 | 0.00 | 0.00 | 0.00 | 67 | 1009.5 |
| 20260509123050 | 56 | 277 | 0.0 | 3.0 | 0.00 | 0.00 | 0.00 | 68 | 1009.5 |
| 20260509122503 | 56 | 277 | 1.0 | 3.0 | 0.00 | 0.00 | 0.00 | 68 | 1009.4 |
| 20260509122040 | 55 | 277 | 1.0 | 3.0 | 0.00 | 0.00 | 0.00 | 68 | 1009.3 |
| 20260509121514 | 55 | 260 | 0.0 | 2.0 | 0.00 | 0.00 | 0.00 | 70 | 1009.4 |
| 20260509121048 | 55 | 240 | 0.0 | 2.0 | 0.00 | 0.00 | 0.00 | 71 | 1009.4 |
| 20260509120514 | 55 | 217 | 0.0 | 1.0 | 0.00 | 0.00 | 0.00 | 71 | 1009.3 |
| 20260509120048 | 55 | 234 | 0.0 | 2.0 | 0.00 | 0.00 | 0.00 | 68 | 1009.4 |
| 20260509115505 | 55 | 234 | 0.0 | 2.0 | 0.00 | 0.00 | 0.00 | 70 | 1009.4 |
| 20260509115039 | 55 | 234 | 1.0 | 2.0 | 0.00 | 0.00 | 0.00 | 69 | 1009.4 |
| 20260509114510 | 55 | 103 | 0.0 | 4.0 | 0.00 | 0.00 | 0.00 | 66 | 1009.3 |
| 20260509114041 | 55 | 103 | 2.0 | 4.0 | 0.00 | 0.00 | 0.00 | 67 | 1009.3 |
| 20260509113510 | 55 | 328 | 0.0 | 4.0 | 0.00 | 0.00 | 0.00 | 66 | 1009.3 |
| 20260509113050 | 55 | 283 | 1.0 | 4.0 | 0.00 | 0.00 | 0.00 | 66 | 1009.0 |
| 20260509112521 | 55 | 323 | 0.0 | 4.0 | 0.00 | 0.00 | 0.00 | 66 | 1008.9 |
| 20260509112051 | 55 | 306 | 0.0 | 4.0 | 0.00 | 0.00 | 0.00 | 66 | 1008.9 |
| 20260509111519 | 55 | 292 | 1.0 | 3.0 | 0.00 | 0.00 | 0.00 | 66 | 1008.8 |
| 20260509111054 | 55 | 293 | 0.0 | 3.0 | 0.00 | 0.00 | 0.00 | 66 | 1008.8 |
| 20260509110528 | 55 | 315 | 0.0 | 3.0 | 0.00 | 0.00 | 0.00 | 66 | 1008.8 |
| 20260509110059 | 55 | 18 | 0.0 | 4.0 | 0.00 | 0.00 | 0.00 | 67 | 1008.8 |
| 20260509105529 | 55 | 9 | 1.0 | 4.0 | 0.00 | 0.00 | 0.00 | 65 | 1008.7 |
| 20260509105045 | 54 | 38 | 1.0 | 4.0 | 0.00 | 0.00 | 0.00 | 67 | 1008.8 |
| 20260509104517 | 55 | 33 | 1.0 | 3.0 | 0.00 | 0.00 | 0.00 | 67 | 1008.9 |
| 20260509104051 | 55 | 50 | 1.0 | 3.0 | 0.00 | 0.00 | 0.00 | 67 | 1008.8 |
| 20260509103521 | 54 | 48 | 1.0 | 4.0 | 0.00 | 0.00 | 0.00 | 65 | 1008.8 |
| 20260509103053 | 54 | 30 | 1.0 | 3.0 | 0.00 | 0.00 | 0.00 | 65 | 1008.8 |
| 20260509102533 | 54 | 44 | 1.0 | 4.0 | 0.00 | 0.00 | 0.00 | 67 | 1008.9 |
| 20260509102047 | 55 | 73 | 0.0 | 4.0 | 0.00 | 0.00 | 0.00 | 66 | 1008.9 |
| 20260509101524 | 55 | 47 | 1.0 | 4.0 | 0.00 | 0.00 | 0.00 | 64 | 1008.9 |
| 20260509101055 | 55 | 48 | 1.0 | 4.0 | 0.00 | 0.00 | 0.00 | 64 | 1008.8 |
| 20260509100527 | 55 | 11 | 1.0 | 3.0 | 0.00 | 0.00 | 0.00 | 63 | 1008.7 |
| 20260509100057 | 55 | 40 | 1.0 | 3.0 | 0.00 | 0.00 | 0.00 | 63 | 1008.9 |
| 20260509095515 | 56 | 327 | 0.0 | 3.0 | 0.00 | 0.00 | 0.00 | 61 | 1008.9 |
| 20260509095051 | 56 | 48 | 0.0 | 3.0 | 0.00 | 0.00 | 0.00 | 62 | 1008.9 |
| 20260509094520 | 56 | 359 | 0.0 | 4.0 | 0.00 | 0.00 | 0.00 | 61 | 1008.8 |
| 20260509094051 | 56 | 342 | 1.0 | 4.0 | 0.00 | 0.00 | 0.00 | 60 | 1008.8 |
| 20260509093505 | 56 | 304 | 1.0 | 5.0 | 0.00 | 0.00 | 0.00 | 60 | 1008.8 |
| 20260509093022 | 56 | 300 | 1.0 | 3.0 | 0.00 | 0.00 | 0.00 | 60 | 1008.9 |
| 20260509092557 | 56 | 217 | 1.0 | 5.0 | 0.00 | 0.00 | 0.00 | 60 | 1008.9 |
| 20260509092031 | 56 | 321 | 1.0 | 6.0 | 0.00 | 0.00 | 0.00 | 61 | 1008.9 |
| 20260509091505 | 56 | 290 | 3.0 | 6.0 | 0.00 | 0.00 | 0.00 | 61 | 1008.9 |
| 20260509091035 | 56 | 304 | 1.0 | 4.0 | 0.00 | 0.00 | 0.00 | 61 | 1008.9 |
| 20260509090509 | 56 | 321 | 0.0 | 5.0 | 0.00 | 0.00 | 0.00 | 60 | 1008.8 |
| 20260509090053 | 57 | 301 | 1.0 | 5.0 | 0.00 | 0.00 | 0.00 | 58 | 1008.8 |
| 20260509085509 | 57 | 59 | 1.0 | 5.0 | 0.00 | 0.00 | 0.00 | 59 | 1008.9 |
| 20260509085044 | 57 | 317 | 1.0 | 7.0 | 0.00 | 0.00 | 0.00 | 60 | 1009.0 |
| 20260509084515 | 57 | 308 | 1.0 | 6.0 | 0.00 | 0.00 | 0.00 | 58 | 1009.1 |
| 20260509084026 | 57 | 283 | 1.0 | 6.0 | 0.00 | 0.00 | 0.00 | 58 | 1009.2 |
| 20260509083559 | 57 | 246 | 1.0 | 4.0 | 0.00 | 0.00 | 0.00 | 58 | 1009.1 |
| 20260509083503 | 57 | 35 | 1.0 | 4.0 | 0.00 | 0.00 | 0.00 | 58 | 1009.1 |
| 20260509083044 | 57 | 292 | 1.0 | 4.0 | 0.00 | 0.00 | 0.00 | 57 | 1009.0 |
| 20260509082503 | 57 | 298 | 1.0 | 9.0 | 0.00 | 0.00 | 0.00 | 58 | 1009.1 |
| 20260509082033 | 57 | 273 | 2.0 | 9.0 | 0.00 | 0.00 | 0.00 | 58 | 1009.1 |
| 20260509081505 | 57 | 298 | 3.0 | 10.0 | 0.00 | 0.00 | 0.00 | 57 | 1009.1 |
| 20260509081039 | 57 | 300 | 5.0 | 12.0 | 0.00 | 0.00 | 0.00 | 58 | 1009.0 |
| 20260509080510 | 57 | 351 | 3.0 | 7.0 | 0.00 | 0.00 | 0.00 | 58 | 1009.2 |
| 20260509080047 | 57 | 290 | 3.0 | 9.0 | 0.00 | 0.00 | 0.00 | 58 | 1009.2 |
| 20260509075559 | 57 | 272 | 4.0 | 9.0 | 0.00 | 0.00 | 0.00 | 58 | 1009.2 |
| 20260509075501 | 57 | 256 | 4.0 | 8.0 | 0.00 | 0.00 | 0.00 | 58 | 1009.1 |
| 20260509075029 | 57 | 259 | 2.0 | 9.0 | 0.00 | 0.00 | 0.00 | 60 | 1009.2 |
| 20260509074503 | 56 | 269 | 5.0 | 9.0 | 0.00 | 0.00 | 0.00 | 59 | 1009.1 |
| 20260509074035 | 56 | 329 | 4.0 | 8.0 | 0.00 | 0.00 | 0.00 | 60 | 1009.2 |
| 20260509073503 | 56 | 321 | 2.0 | 7.0 | 0.00 | 0.00 | 0.00 | 62 | 1009.2 |
| 20260509073019 | 56 | 278 | 0.0 | 6.0 | 0.00 | 0.00 | 0.00 | 63 | 1009.2 |
| 20260509072555 | 56 | 327 | 0.0 | 6.0 | 0.00 | 0.00 | 0.00 | 62 | 1009.2 |
| 20260509072026 | 55 | 322 | 1.0 | 4.0 | 0.00 | 0.00 | 0.00 | 62 | 1009.1 |
| 20260509071559 | 55 | 288 | 2.0 | 4.0 | 0.00 | 0.00 | 0.00 | 63 | 1009.3 |
| 20260509071500 | 55 | 309 | 1.0 | 5.0 | 0.00 | 0.00 | 0.00 | 63 | 1009.2 |
| 20260509071037 | 55 | 303 | 0.0 | 3.0 | 0.00 | 0.00 | 0.00 | 64 | 1009.2 |
| 20260509070551 | 55 | 350 | 0.0 | 2.0 | 0.00 | 0.00 | 0.00 | 63 | 1009.3 |
| 20260509070025 | 55 | 259 | 0.0 | 4.0 | 0.00 | 0.00 | 0.00 | 64 | 1009.2 |
| 20260509065556 | 55 | 284 | 1.0 | 4.0 | 0.00 | 0.00 | 0.00 | 64 | 1009.3 |
| 20260509065028 | 55 | 312 | 0.0 | 4.0 | 0.00 | 0.00 | 0.00 | 64 | 1009.3 |
| 20260509064503 | 55 | 282 | 1.0 | 4.0 | 0.00 | 0.00 | 0.00 | 63 | 1009.3 |
| 20260509064037 | 55 | 275 | 0.0 | 3.0 | 0.00 | 0.00 | 0.00 | 64 | 1009.3 |
| 20260509063504 | 55 | 291 | 1.0 | 5.0 | 0.00 | 0.00 | 0.00 | 65 | 1009.5 |
| 20260509063034 | 55 | 243 | 0.0 | 3.0 | 0.00 | 0.00 | 0.00 | 64 | 1009.5 |
| 20260509062507 | 55 | 254 | 0.0 | 6.0 | 0.00 | 0.00 | 0.00 | 65 | 1009.5 |
| 20260509062039 | 54 | 333 | 2.0 | 6.0 | 0.00 | 0.00 | 0.00 | 66 | 1009.6 |
| 20260509061519 | 54 | 257 | 1.0 | 4.0 | 0.00 | 0.00 | 0.00 | 67 | 1009.7 |
| 20260509061026 | 54 | 296 | 1.0 | 3.0 | 0.00 | 0.00 | 0.00 | 69 | 1009.8 |
| 20260509060603 | 54 | 67 | 0.0 | 3.0 | 0.00 | 0.00 | 0.00 | 68 | 1009.7 |
| 20260509060503 | 54 | 67 | 0.0 | 3.0 | 0.00 | 0.00 | 0.00 | 70 | 1009.7 |
| 20260509060037 | 54 | 326 | 1.0 | 3.0 | 0.00 | 0.00 | 0.00 | 67 | 1009.8 |
| 20260509055507 | 54 | 259 | 0.0 | 3.0 | 0.00 | 0.00 | 0.00 | 67 | 1009.8 |
| 20260509055035 | 54 | 282 | 0.0 | 2.0 | 0.00 | 0.00 | 0.00 | 66 | 1009.9 |
| 20260509054511 | 54 | 356 | 0.0 | 2.0 | 0.00 | 0.00 | 0.00 | 66 | 1009.9 |
| 20260509054044 | 55 | 352 | 0.0 | 3.0 | 0.00 | 0.00 | 0.00 | 66 | 1009.9 |
| 20260509053516 | 54 | 298 | 0.0 | 3.0 | 0.00 | 0.00 | 0.00 | 65 | 1010.0 |
| 20260509053129 | 54 | 274 | 0.0 | 5.0 | 0.00 | 0.00 | 0.00 | 65 | 1009.9 |
| 20260509052531 | 54 | 322 | 1.0 | 5.0 | 0.00 | 0.00 | 0.00 | 65 | 1009.9 |
| 20260509052101 | 54 | 280 | 0.0 | 4.0 | 0.00 | 0.00 | 0.00 | 66 | 1010.0 |
| 20260509052002 | 53 | 96 | 1.0 | 4.0 | 0.00 | 0.00 | 0.00 | 66 | 1009.9 |
| 20260509051539 | 53 | 285 | 1.0 | 5.0 | 0.00 | 0.00 | 0.00 | 67 | 1009.9 |
| 20260509051009 | 53 | 302 | 2.0 | 5.0 | 0.00 | 0.00 | 0.00 | 67 | 1010.0 |
| 20260509050544 | 53 | 296 | 0.0 | 3.0 | 0.00 | 0.00 | 0.00 | 68 | 1010.0 |
| 20260509050015 | 53 | 277 | 0.0 | 3.0 | 0.00 | 0.00 | 0.00 | 68 | 1009.9 |
| 20260509045528 | 53 | 285 | 0.0 | 3.0 | 0.00 | 0.00 | 0.00 | 68 | 1010.0 |
| 20260509045104 | 52 | 27 | 0.0 | 3.0 | 0.00 | 0.00 | 0.00 | 70 | 1010.0 |
| 20260509045004 | 52 | 27 | 0.0 | 3.0 | 0.00 | 0.00 | 0.00 | 70 | 1009.9 |
| 20260509044536 | 52 | 304 | 0.0 | 3.0 | 0.00 | 0.00 | 0.00 | 70 | 1010.0 |
| 20260509044009 | 52 | 321 | 0.0 | 2.0 | 0.00 | 0.00 | 0.00 | 75 | 1009.7 |
| 20260509043540 | 51 | 321 | 0.0 | 2.0 | 0.00 | 0.00 | 0.00 | 72 | 1009.9 |
| 20260509043011 | 51 | 350 | 0.0 | 0.0 | 0.00 | 0.00 | 0.00 | 74 | 1009.8 |
| 20260509042526 | 51 | 350 | 0.0 | 0.0 | 0.00 | 0.00 | 0.00 | 75 | 1010.0 |
| 20260509042100 | 51 | 350 | 0.0 | 0.0 | 0.00 | 0.00 | 0.00 | 74 | 1009.8 |
| 20260509042002 | 51 | 350 | 0.0 | 0.0 | 0.00 | 0.00 | 0.00 | 74 | 1009.8 |
| 20260509041550 | 51 | 350 | 0.0 | 0.0 | 0.00 | 0.00 | 0.00 | 74 | 1009.9 |
| 20260509041011 | 51 | 350 | 0.0 | 0.0 | 0.00 | 0.00 | 0.00 | 73 | 1009.9 |
| 20260509040546 | 51 | 350 | 0.0 | 1.0 | 0.00 | 0.00 | 0.00 | 70 | 1009.9 |
| 20260509040118 | 52 | 350 | 0.0 | 2.0 | 0.00 | 0.00 | 0.00 | 72 | 1009.9 |
| 20260509035526 | 52 | 350 | 0.0 | 2.0 | 0.00 | 0.00 | 0.00 | 71 | 1010.0 |
| 20260509035100 | 53 | 305 | 0.0 | 2.0 | 0.00 | 0.00 | 0.00 | 70 | 1009.9 |
| 20260509035005 | 53 | 310 | 0.0 | 2.0 | 0.00 | 0.00 | 0.00 | 70 | 1009.9 |
| 20260509034550 | 53 | 310 | 0.0 | 2.0 | 0.00 | 0.00 | 0.00 | 68 | 1009.9 |
| 20260509034008 | 53 | 310 | 0.0 | 1.0 | 0.00 | 0.00 | 0.00 | 67 | 1009.9 |
| 20260509033524 | 53 | 290 | 0.0 | 1.0 | 0.00 | 0.00 | 0.00 | 66 | 1009.9 |
| 20260509033057 | 54 | 280 | 0.0 | 0.0 | 0.00 | 0.00 | 0.00 | 65 | 1009.9 |
| 20260509032526 | 54 | 280 | 0.0 | 0.0 | 0.00 | 0.00 | 0.00 | 62 | 1010.0 |
| 20260509032101 | 55 | 280 | 0.0 | 0.0 | 0.00 | 0.00 | 0.00 | 62 | 1010.0 |
| 20260509032003 | 55 | 280 | 0.0 | 0.0 | 0.00 | 0.00 | 0.00 | 61 | 1010.0 |
| 20260509031536 | 55 | 280 | 0.0 | 0.0 | 0.00 | 0.00 | 0.00 | 61 | 1010.0 |
| 20260509031006 | 55 | 280 | 0.0 | 0.0 | 0.00 | 0.00 | 0.00 | 60 | 1010.0 |
| 20260509030545 | 56 | 280 | 0.0 | 0.0 | 0.00 | 0.00 | 0.00 | 60 | 1010.0 |
| 20260509030012 | 56 | 280 | 0.0 | 0.0 | 0.00 | 0.00 | 0.00 | 59 | 1010.0 |
| 20260509025546 | 56 | 280 | 0.0 | 0.0 | 0.00 | 0.00 | 0.00 | 59 | 1010.1 |
| 20260509025016 | 56 | 280 | 0.0 | 0.0 | 0.00 | 0.00 | 0.00 | 59 | 1010.1 |
| 20260509024548 | 57 | 280 | 0.0 | 0.0 | 0.00 | 0.00 | 0.00 | 59 | 1010.2 |
| 20260509024024 | 57 | 280 | 0.0 | 0.0 | 0.00 | 0.00 | 0.00 | 59 | 1010.2 |
| 20260509023554 | 58 | 280 | 0.0 | 2.0 | 0.00 | 0.00 | 0.00 | 57 | 1010.2 |
| 20260509023023 | 58 | 280 | 0.0 | 2.0 | 0.00 | 0.00 | 0.00 | 56 | 1010.3 |
| 20260509022602 | 58 | 280 | 0.0 | 2.0 | 0.00 | 0.00 | 0.00 | 56 | 1010.3 |
| 20260509022032 | 58 | 284 | 0.0 | 3.0 | 0.00 | 0.00 | 0.00 | 56 | 1010.2 |
| 20260509021558 | 58 | 279 | 0.0 | 3.0 | 0.00 | 0.00 | 0.00 | 55 | 1010.2 |
| 20260509021502 | 58 | 279 | 0.0 | 3.0 | 0.00 | 0.00 | 0.00 | 55 | 1010.2 |
| 20260509021033 | 58 | 286 | 0.0 | 3.0 | 0.00 | 0.00 | 0.00 | 55 | 1010.1 |
| 20260509020509 | 58 | 294 | 0.0 | 2.0 | 0.00 | 0.00 | 0.00 | 55 | 1010.2 |
| 20260509020052 | 58 | 300 | 0.0 | 0.0 | 0.00 | 0.00 | 0.00 | 54 | 1010.2 |
| 20260509015517 | 59 | 296 | 0.0 | 0.0 | 0.00 | 0.00 | 0.00 | 54 | 1010.2 |
| 20260509015050 | 59 | 301 | 0.0 | 0.0 | 0.00 | 0.00 | 0.00 | 54 | 1010.2 |
| 20260509014509 | 60 | 267 | 0.0 | 0.0 | 0.00 | 0.00 | 0.00 | 53 | 1010.2 |
| 20260509014041 | 60 | 267 | 0.0 | 0.0 | 0.00 | 0.00 | 0.00 | 52 | 1010.1 |
| 20260509013508 | 60 | 261 | 0.0 | 0.0 | 0.00 | 0.00 | 0.00 | 51 | 1010.0 |
| 20260509013049 | 61 | 262 | 0.0 | 0.0 | 0.00 | 0.00 | 0.00 | 50 | 1010.0 |
| 20260509012514 | 61 | 261 | 0.0 | 0.0 | 0.00 | 0.00 | 0.00 | 50 | 1010.0 |
| 20260509012046 | 61 | 261 | 0.0 | 0.0 | 0.00 | 0.00 | 0.00 | 49 | 1010.1 |
| 20260509011526 | 62 | 261 | 0.0 | 0.0 | 0.00 | 0.00 | 0.00 | 49 | 1010.1 |
| 20260509011057 | 62 | 261 | 0.0 | 0.0 | 0.00 | 0.00 | 0.00 | 48 | 1010.1 |
| 20260509010533 | 62 | 261 | 0.0 | 0.0 | 0.00 | 0.00 | 0.00 | 48 | 1010.0 |
| 20260509010100 | 62 | 261 | 0.0 | 2.0 | 0.00 | 0.00 | 0.00 | 47 | 1009.9 |
| 20260509010008 | 62 | 261 | 0.0 | 2.0 | 0.00 | 0.00 | 0.00 | 47 | 1010.0 |
| 20260509005545 | 63 | 256 | 0.0 | 2.0 | 0.00 | 0.00 | 0.00 | 47 | 1009.9 |
| 20260509005018 | 63 | 256 | 0.0 | 3.0 | 0.00 | 0.00 | 0.00 | 46 | 1009.9 |
| 20260509004546 | 63 | 261 | 1.0 | 3.0 | 0.00 | 0.00 | 0.00 | 46 | 1009.8 |
| 20260509004017 | 64 | 246 | 0.0 | 3.0 | 0.00 | 0.00 | 0.00 | 45 | 1009.8 |
| 20260509003548 | 64 | 226 | 0.0 | 3.0 | 0.00 | 0.00 | 0.00 | 45 | 1009.8 |
| 20260509003006 | 65 | 231 | 1.0 | 3.0 | 0.00 | 0.00 | 0.00 | 45 | 1009.7 |
| 20260509002537 | 65 | 275 | 0.0 | 4.0 | 0.00 | 0.00 | 0.00 | 43 | 1009.7 |
| 20260509002006 | 65 | 252 | 1.0 | 5.0 | 0.00 | 0.00 | 0.00 | 43 | 1009.7 |
| 20260509001538 | 66 | 257 | 1.0 | 5.0 | 0.00 | 0.00 | 0.00 | 41 | 1009.8 |
| 20260509001013 | 66 | 269 | 1.0 | 6.0 | 0.00 | 0.00 | 0.00 | 40 | 1009.7 |
| 20260509000546 | 66 | 292 | 3.0 | 6.0 | 0.00 | 0.00 | 0.00 | 39 | 1009.6 |
| 20260509000100 | 66 | 298 | 0.0 | 4.0 | 0.00 | 0.00 | 0.00 | 40 | 1009.6 |
| 20260509000005 | 66 | 298 | 1.0 | 4.0 | 0.00 | 0.00 | 0.00 | 40 | 1009.6 |
| 20260508235527 | 67 | 263 | 1.0 | 4.0 | 0.00 | 0.00 | 0.00 | 41 | 1009.6 |
| 20260508235057 | 67 | 222 | 0.0 | 2.0 | 0.00 | 0.00 | 0.00 | 40 | 1009.5 |
| 20260508234535 | 67 | 279 | 0.0 | 0.0 | 0.00 | 0.00 | 0.00 | 38 | 1009.4 |
| 20260508234100 | 68 | 279 | 0.0 | 2.0 | 0.00 | 0.00 | 0.00 | 38 | 1009.3 |
| 20260508234001 | 68 | 279 | 0.0 | 2.0 | 0.00 | 0.00 | 0.00 | 37 | 1009.4 |
| 20260508233532 | 68 | 296 | 0.0 | 3.0 | 0.00 | 0.00 | 0.00 | 38 | 1009.3 |
| 20260508233113 | 68 | 268 | 0.0 | 3.0 | 0.00 | 0.00 | 0.00 | 38 | 1009.2 |
| 20260508233002 | 68 | 268 | 0.0 | 2.0 | 0.00 | 0.00 | 0.00 | 37 | 1009.3 |
| 20260508232539 | 69 | 289 | 0.0 | 3.0 | 0.00 | 0.00 | 0.00 | 37 | 1009.4 |
| 20260508232007 | 69 | 291 | 1.0 | 3.0 | 0.00 | 0.00 | 0.00 | 35 | 1009.2 |
| 20260508231539 | 69 | 279 | 1.0 | 2.0 | 0.00 | 0.00 | 0.00 | 36 | 1009.3 |
| 20260508231009 | 69 | 355 | 0.0 | 1.0 | 0.00 | 0.00 | 0.00 | 36 | 1009.2 |
| 20260508230527 | 69 | 357 | 0.0 | 2.0 | 0.00 | 0.00 | 0.00 | 35 | 1009.2 |
| 20260508230107 | 70 | 358 | 0.0 | 4.0 | 0.00 | 0.00 | 0.00 | 34 | 1009.3 |
| 20260508230003 | 70 | 291 | 0.0 | 4.0 | 0.00 | 0.00 | 0.00 | 34 | 1009.3 |
| 20260508225536 | 70 | 302 | 1.0 | 5.0 | 0.00 | 0.00 | 0.00 | 34 | 1009.2 |
| 20260508225052 | 70 | 323 | 0.0 | 6.0 | 0.00 | 0.00 | 0.00 | 33 | 1009.2 |
| 20260508224509 | 71 | 357 | 0.0 | 6.0 | 0.00 | 0.00 | 0.00 | 33 | 1009.2 |
| 20260508224043 | 71 | 325 | 1.0 | 6.0 | 0.00 | 0.00 | 0.00 | 32 | 1009.1 |
| 20260508223513 | 72 | 302 | 2.0 | 6.0 | 0.00 | 0.00 | 0.00 | 31 | 1009.1 |
| 20260508223048 | 72 | 341 | 1.0 | 4.0 | 0.00 | 0.00 | 0.00 | 32 | 1009.1 |
| 20260508222521 | 72 | 324 | 1.0 | 6.0 | 0.00 | 0.00 | 0.00 | 36 | 1009.0 |
| 20260508222034 | 72 | 340 | 2.0 | 6.0 | 0.00 | 0.00 | 0.00 | 34 | 1008.9 |
| 20260508221518 | 71 | 260 | 2.0 | 7.0 | 0.00 | 0.00 | 0.00 | 33 | 1009.0 |
| 20260508221042 | 71 | 276 | 2.0 | 7.0 | 0.00 | 0.00 | 0.00 | 35 | 1009.0 |
| 20260508220514 | 70 | 265 | 0.0 | 2.0 | 0.00 | 0.00 | 0.00 | 40 | 1009.1 |
| 20260508220030 | 70 | 190 | 0.0 | 2.0 | 0.00 | 0.00 | 0.00 | 37 | 1009.1 |
| 20260508215559 | 69 | 217 | 1.0 | 3.0 | 0.00 | 0.00 | 0.00 | 36 | 1009.1 |
| 20260508215502 | 69 | 271 | 0.0 | 4.0 | 0.00 | 0.00 | 0.00 | 36 | 1009.2 |
| 20260508215027 | 69 | 303 | 2.0 | 7.0 | 0.00 | 0.00 | 0.00 | 34 | 1009.3 |
| 20260508214606 | 70 | 309 | 3.0 | 8.0 | 0.00 | 0.00 | 0.00 | 35 | 1009.3 |
| 20260508214501 | 70 | 304 | 2.0 | 5.0 | 0.00 | 0.00 | 0.00 | 34 | 1009.3 |
| 20260508214032 | 70 | 290 | 2.0 | 9.0 | 0.00 | 0.00 | 0.00 | 35 | 1009.2 |
| 20260508213503 | 70 | 38 | 2.0 | 9.0 | 0.00 | 0.00 | 0.00 | 33 | 1009.2 |
| 20260508213035 | 71 | 32 | 2.0 | 9.0 | 0.00 | 0.00 | 0.00 | 33 | 1009.1 |
| 20260508212513 | 70 | 15 | 3.0 | 10.0 | 0.00 | 0.00 | 0.00 | 34 | 1009.2 |
| 20260508212042 | 71 | 38 | 3.0 | 10.0 | 0.00 | 0.00 | 0.00 | 33 | 1009.2 |
| 20260508211511 | 72 | 40 | 2.0 | 8.0 | 0.00 | 0.00 | 0.00 | 34 | 1009.2 |
| 20260508211043 | 71 | 302 | 2.0 | 6.0 | 0.00 | 0.00 | 0.00 | 35 | 1009.2 |
| 20260508210515 | 70 | 300 | 3.0 | 9.0 | 0.00 | 0.00 | 0.00 | 33 | 1009.2 |
| 20260508210049 | 70 | 249 | 2.0 | 11.0 | 0.00 | 0.00 | 0.00 | 32 | 1009.3 |
| 20260508205525 | 70 | 46 | 7.0 | 12.0 | 0.00 | 0.00 | 0.00 | 33 | 1009.4 |
| 20260508205057 | 70 | 69 | 5.0 | 16.0 | 0.00 | 0.00 | 0.00 | 32 | 1009.3 |
| 20260508204535 | 70 | 52 | 10.0 | 16.0 | 0.00 | 0.00 | 0.00 | 32 | 1009.4 |
| 20260508204010 | 70 | 23 | 7.0 | 16.0 | 0.00 | 0.00 | 0.00 | 35 | 1009.4 |
| 20260508203521 | 70 | 34 | 9.0 | 16.0 | 0.00 | 0.00 | 0.00 | 33 | 1009.5 |
| 20260508203054 | 70 | 38 | 5.0 | 14.0 | 0.00 | 0.00 | 0.00 | 37 | 1009.5 |
| 20260508202524 | 70 | 8 | 6.0 | 12.0 | 0.00 | 0.00 | 0.00 | 33 | 1009.4 |
| 20260508202056 | 69 | 45 | 6.0 | 11.0 | 0.00 | 0.00 | 0.00 | 34 | 1009.6 |
| 20260508201531 | 70 | 46 | 7.0 | 14.0 | 0.00 | 0.00 | 0.00 | 32 | 1009.6 |
| 20260508201045 | 70 | 23 | 9.0 | 14.0 | 0.00 | 0.00 | 0.00 | 32 | 1009.7 |
| 20260508200515 | 70 | 246 | 2.0 | 11.0 | 0.00 | 0.00 | 0.00 | 31 | 1009.7 |
| 20260508200055 | 70 | 23 | 5.0 | 11.0 | 0.00 | 0.00 | 0.00 | 32 | 1010.0 |
| 20260508195518 | 70 | 23 | 4.0 | 10.0 | 0.00 | 0.00 | 0.00 | 35 | 1009.9 |
| 20260508195049 | 69 | 72 | 5.0 | 10.0 | 0.00 | 0.00 | 0.00 | 33 | 1009.9 |
| 20260508194505 | 69 | 3 | 3.0 | 15.0 | 0.00 | 0.00 | 0.00 | 36 | 1010.0 |
| 20260508194030 | 69 | 228 | 7.0 | 15.0 | 0.00 | 0.00 | 0.00 | 35 | 1010.2 |
| 20260508193507 | 69 | 65 | 7.0 | 14.0 | 0.00 | 0.00 | 0.00 | 34 | 1010.2 |
| 20260508193036 | 69 | 94 | 6.0 | 14.0 | 0.00 | 0.00 | 0.00 | 35 | 1010.2 |
| 20260508192507 | 69 | 29 | 5.0 | 12.0 | 0.00 | 0.00 | 0.00 | 37 | 1010.3 |
| 20260508192041 | 69 | 5 | 5.0 | 10.0 | 0.00 | 0.00 | 0.00 | 32 | 1010.6 |
| 20260508191511 | 68 | 311 | 2.0 | 12.0 | 0.00 | 0.00 | 0.00 | 37 | 1010.6 |
| 20260508191042 | 68 | 298 | 4.0 | 12.0 | 0.00 | 0.00 | 0.00 | 33 | 1010.8 |
| 20260508190511 | 68 | 313 | 5.0 | 12.0 | 0.00 | 0.00 | 0.00 | 36 | 1010.9 |
| 20260508190049 | 68 | 42 | 5.0 | 11.0 | 0.00 | 0.00 | 0.00 | 37 | 1011.0 |
| 20260508185601 | 68 | 335 | 5.0 | 11.0 | 0.00 | 0.00 | 0.00 | 34 | 1011.0 |
| 20260508185503 | 68 | 18 | 4.0 | 14.0 | 0.00 | 0.00 | 0.00 | 35 | 1010.9 |
| 20260508185035 | 67 | 315 | 5.0 | 16.0 | 0.00 | 0.00 | 0.00 | 37 | 1011.1 |
| 20260508184505 | 67 | 27 | 8.0 | 16.0 | 0.00 | 0.00 | 0.00 | 36 | 1011.2 |
| 20260508184036 | 67 | 42 | 4.0 | 14.0 | 0.00 | 0.00 | 0.00 | 35 | 1011.3 |
| 20260508183509 | 67 | 56 | 6.0 | 21.0 | 0.00 | 0.00 | 0.00 | 33 | 1011.4 |
| 20260508183047 | 68 | 323 | 7.0 | 21.0 | 0.00 | 0.00 | 0.00 | 36 | 1011.3 |
| 20260508182517 | 67 | 41 | 7.0 | 13.0 | 0.00 | 0.00 | 0.00 | 37 | 1011.3 |
| 20260508182051 | 67 | 61 | 4.0 | 13.0 | 0.00 | 0.00 | 0.00 | 39 | 1011.3 |
| 20260508181520 | 67 | 286 | 5.0 | 14.0 | 0.00 | 0.00 | 0.00 | 37 | 1011.4 |
| 20260508181052 | 67 | 356 | 8.0 | 17.0 | 0.00 | 0.00 | 0.00 | 36 | 1011.4 |
| 20260508180511 | 67 | 13 | 6.0 | 24.0 | 0.00 | 0.00 | 0.00 | 36 | 1011.7 |
| 20260508180039 | 67 | 8 | 6.0 | 24.0 | 0.00 | 0.00 | 0.00 | 36 | 1011.6 |
| 20260508175511 | 67 | 9 | 5.0 | 14.0 | 0.00 | 0.00 | 0.00 | 37 | 1011.5 |
| 20260508175046 | 67 | 69 | 8.0 | 14.0 | 0.00 | 0.00 | 0.00 | 36 | 1011.7 |
| 20260508174558 | 67 | 356 | 10.0 | 14.0 | 0.00 | 0.00 | 0.00 | 35 | 1011.9 |
| 20260508174500 | 67 | 26 | 9.0 | 14.0 | 0.00 | 0.00 | 0.00 | 36 | 1012.0 |
| 20260508174034 | 66 | 63 | 3.0 | 14.0 | 0.00 | 0.00 | 0.00 | 39 | 1011.9 |
| 20260508173505 | 65 | 10 | 5.0 | 15.0 | 0.00 | 0.00 | 0.00 | 41 | 1011.7 |